TimeEST,TemperatureF,Dew PointF,Humidity,Sea Level PressureIn,VisibilityMPH,Wind Direction,Wind SpeedMPH,Gust SpeedMPH,PrecipitationIn,Events,Conditions,WindDirDegrees,DateUTC
12:32 AM,28.4,23.0,80,30.12,10.0,WSW,3.5,-,0.00,,Overcast,250,2013-12-31 05:32:00
12:48 AM,28.4,24.8,86,30.11,6.0,SSW,4.6,-,0.00,Snow,Light Snow,200,2013-12-31 05:48:00
12:53 AM,28.9,24.1,82,30.13,7.0,SSW,4.6,-,0.00,Snow,Light Snow,200,2013-12-31 05:53:00
1:37 AM,28.4,24.8,86,30.10,10.0,SW,8.1,-,0.00,,Overcast,220,2013-12-31 06:37:00
1:53 AM,28.9,24.1,82,30.12,10.0,SW,5.8,-,0.00,,Overcast,230,2013-12-31 06:53:00
2:08 AM,28.4,24.8,86,30.11,10.0,SW,10.4,-,N/A,,Overcast,230,2013-12-31 07:08:00
2:53 AM,28.9,21.9,75,30.14,10.0,WSW,15.0,21.9,N/A,,Overcast,240,2013-12-31 07:53:00
3:53 AM,28.9,21.0,72,30.13,10.0,WSW,10.4,-,N/A,,Mostly Cloudy,240,2013-12-31 08:53:00
4:53 AM,28.0,23.0,81,30.12,10.0,SW,10.4,-,0.00,,Overcast,230,2013-12-31 09:53:00
5:11 AM,28.4,21.2,74,30.11,10.0,WSW,8.1,-,N/A,,Overcast,250,2013-12-31 10:11:00
5:53 AM,28.0,21.9,78,30.14,5.0,WSW,11.5,-,0.00,Snow,Light Snow,250,2013-12-31 10:53:00
6:15 AM,28.4,21.2,74,30.13,5.0,SW,11.5,-,0.00,Snow,Light Snow,230,2013-12-31 11:15:00
6:53 AM,28.0,19.0,69,30.13,10.0,SW,11.5,-,0.00,,Overcast,220,2013-12-31 11:53:00
7:53 AM,28.0,19.0,69,30.13,10.0,SW,11.5,-,N/A,,Overcast,230,2013-12-31 12:53:00
8:53 AM,28.0,19.0,69,30.16,10.0,WSW,12.7,26.5,N/A,,Overcast,240,2013-12-31 13:53:00
9:53 AM,28.0,18.0,66,30.21,10.0,WSW,18.4,25.3,N/A,,Overcast,250,2013-12-31 14:53:00
10:53 AM,28.0,17.1,63,30.23,10.0,WSW,11.5,27.6,N/A,,Overcast,250,2013-12-31 15:53:00
11:53 AM,28.0,18.0,66,30.27,8.0,West,19.6,25.3,0.00,Snow,Light Snow,270,2013-12-31 16:53:00
12:24 PM,26.6,17.6,69,30.26,3.0,West,15.0,26.5,0.00,Snow,Light Snow,270,2013-12-31 17:24:00
12:37 PM,26.6,17.6,69,30.26,2.5,WSW,11.5,25.3,0.00,Snow,Light Snow,250,2013-12-31 17:37:00
12:53 PM,27.0,19.0,72,30.30,2.5,West,10.4,21.9,0.00,Snow,Light Snow,260,2013-12-31 17:53:00
1:08 PM,26.6,19.4,74,30.27,2.0,WSW,10.4,-,0.00,Snow,Light Snow,250,2013-12-31 18:08:00
1:34 PM,26.6,19.4,74,30.27,2.0,SW,16.1,20.7,0.00,Snow,Light Snow,230,2013-12-31 18:34:00
1:53 PM,27.0,18.0,69,30.29,2.0,SW,12.7,23.0,0.00,Snow,Light Snow,230,2013-12-31 18:53:00
2:00 PM,28.4,17.6,64,30.27,7.0,WSW,11.5,-,0.00,Snow,Light Snow,250,2013-12-31 19:00:00
2:17 PM,28.4,17.6,64,30.27,10.0,West,13.8,-,0.00,,Overcast,260,2013-12-31 19:17:00
2:34 PM,28.4,15.8,59,30.27,10.0,WSW,13.8,-,0.00,,Overcast,240,2013-12-31 19:34:00
2:53 PM,28.0,16.0,61,30.30,10.0,West,9.2,-,0.00,,Overcast,260,2013-12-31 19:53:00
3:53 PM,28.0,16.0,61,30.32,10.0,WSW,12.7,-,N/A,,Overcast,250,2013-12-31 20:53:00
4:53 PM,27.0,16.0,63,30.33,10.0,WSW,8.1,-,N/A,,Mostly Cloudy,240,2013-12-31 21:53:00
5:53 PM,26.1,15.1,63,30.34,10.0,SW,8.1,-,N/A,,Clear,230,2013-12-31 22:53:00
6:53 PM,25.0,16.0,69,30.34,10.0,SW,5.8,-,N/A,,Scattered Clouds,220,2013-12-31 23:53:00
7:53 PM,25.0,16.0,69,30.34,10.0,South,5.8,-,N/A,,Scattered Clouds,190,2014-01-01 00:53:00
8:53 PM,25.0,16.0,69,30.34,10.0,South,3.5,-,N/A,,Clear,190,2014-01-01 01:53:00
9:53 PM,24.1,16.0,71,30.35,10.0,South,3.5,-,N/A,,Clear,170,2014-01-01 02:53:00
10:53 PM,25.0,17.1,72,30.34,10.0,South,5.8,-,N/A,,Partly Cloudy,180,2014-01-01 03:53:00
11:53 PM,24.1,17.1,75,30.33,10.0,SSW,3.5,-,N/A,,Clear,200,2014-01-01 04:53:00